9W2KHE-13 Weather Reports


time (UTC)temp
F
wind
direction
speed
knots
gust
knots
rain 1hr
in
rain 24hr
in
rain mn
in
humidity
%
barometer
mb
20260502222046 84 135 0.0 0.0 0.00 0.00 0.00 70 1009.9
20260502221545 84 135 0.0 0.0 0.00 0.00 0.00 70 1009.9
20260502221044 84 135 0.0 0.0 0.00 0.00 0.00 70 1009.9
20260502220544 84 135 0.0 0.0 0.00 0.00 0.00 70 1009.9
20260502220041 84 135 0.0 0.0 0.00 0.00 0.00 70 1010.0
20260502215541 85 135 0.0 0.0 0.00 0.00 0.00 70 1010.0
20260502214539 85 135 0.0 0.0 0.00 0.00 0.00 70 1010.0
20260502214039 85 135 0.0 0.0 0.00 0.00 0.00 70 1010.1
20260502212534 85 135 0.0 0.0 0.00 0.00 0.00 70 1010.0
20260502211533 85 135 0.0 0.0 0.00 0.00 0.00 70 1010.1
20260502210530 85 135 0.0 0.0 0.00 0.00 0.00 70 1010.2
20260502210029 85 135 0.0 0.0 0.00 0.00 0.00 70 1010.2
20260502205528 85 135 0.0 0.0 0.00 0.00 0.00 70 1010.2
20260502204526 85 135 0.0 0.0 0.00 0.00 0.00 70 1010.1
20260502202523 85 135 0.0 0.0 0.00 0.00 0.00 70 1010.1
20260502202020 85 135 0.0 0.0 0.00 0.00 0.00 69 1010.0
20260502201519 85 135 0.0 0.0 0.00 0.00 0.00 69 1010.0
20260502200519 85 135 0.0 0.0 0.00 0.00 0.00 69 1010.0
20260502195515 85 135 0.0 0.0 0.00 0.00 0.00 69 1010.1
20260502194520 85 136 0.0 0.0 0.00 0.00 0.00 69 1010.1
20260502194013 85 135 0.0 0.0 0.00 0.00 0.00 69 1010.1
20260502193512 85 135 0.0 0.0 0.00 0.00 0.00 69 1010.1
20260502193010 85 135 0.0 0.0 0.00 0.00 0.00 69 1010.2
20260502192511 85 135 0.0 0.0 0.00 0.00 0.00 69 1010.1
20260502192008 85 135 0.0 0.0 0.00 0.00 0.00 69 1010.2
20260502191507 85 157 0.0 0.0 0.00 0.00 0.00 69 1010.2
20260502184501 86 157 0.0 0.0 0.00 0.00 0.00 68 1010.2
20260502184000 86 157 0.0 0.0 0.00 0.00 0.00 68 1010.2
20260502183501 86 157 0.0 0.0 0.00 0.00 0.00 67 1010.4
20260502181455 86 135 0.0 0.0 0.00 0.00 0.00 67 1010.5
20260502163434 87 135 0.0 0.0 0.00 0.00 0.00 66 1011.8
20260502162934 87 135 0.0 0.0 0.00 0.00 0.00 66 1011.9
20260502161931 87 135 0.0 0.0 0.00 0.00 0.00 66 1011.9
20260502161430 87 135 0.0 0.0 0.00 0.00 0.00 66 1011.9
20260502160929 87 135 0.0 0.0 0.00 0.00 0.00 66 1011.9
20260502151918 88 135 0.0 0.0 0.00 0.00 0.00 64 1011.9
20260502151419 88 135 0.0 0.0 0.00 0.00 0.00 64 1011.9
20260502150415 88 135 0.0 0.0 0.00 0.00 0.00 64 1011.8
20260502130350 89 135 0.0 0.0 0.00 0.00 0.00 62 1010.7
20260502123344 90 135 0.0 0.0 0.00 0.00 0.00 61 1010.0
20260502122843 90 135 0.0 0.0 0.00 0.00 0.00 61 1009.9
20260502122342 90 135 0.0 0.0 0.00 0.00 0.00 61 1009.8
20260502121841 90 135 0.0 0.0 0.00 0.00 0.00 61 1009.7
20260502121339 90 135 0.0 0.0 0.00 0.00 0.00 60 1009.8
20260502120839 90 153 0.0 0.0 0.00 0.00 0.00 60 1009.6
20260502120338 90 135 0.0 0.0 0.00 0.00 0.00 60 1009.5
20260502114834 91 135 0.0 0.0 0.00 0.00 0.00 60 1009.1
20260502114334 91 135 0.0 0.0 0.00 0.00 0.00 60 1009.1
20260502113832 91 135 0.0 0.0 0.00 0.00 0.00 59 1008.9
20260502113331 91 135 0.0 0.0 0.00 0.00 0.00 59 1008.8
20260502112838 91 135 0.0 0.0 0.00 0.00 0.00 59 1008.8
20260502112329 91 135 0.0 0.0 0.00 0.00 0.00 59 1008.7
20260502111828 91 135 0.0 0.0 0.00 0.00 0.00 59 1008.6
20260502111327 91 157 0.0 0.0 0.00 0.00 0.00 59 1008.7
20260502110826 91 157 0.0 0.0 0.00 0.00 0.00 59 1008.7
20260502110329 91 157 0.0 0.0 0.00 0.00 0.00 59 1008.5
20260502105824 91 157 0.0 0.0 0.00 0.00 0.00 59 1008.5
20260502105323 91 157 0.0 0.0 0.00 0.00 0.00 59 1008.5
20260502104822 91 135 0.0 0.0 0.00 0.00 0.00 59 1008.3
20260502104321 92 135 0.0 0.0 0.00 0.00 0.00 59 1008.3
20260502103821 92 157 0.0 0.0 0.00 0.00 0.00 59 1008.3
20260502103318 92 135 0.0 0.0 0.00 0.00 0.00 59 1008.2
20260502102817 92 135 0.0 0.0 0.00 0.00 0.00 59 1008.2
20260502101815 92 135 0.0 0.0 0.00 0.00 0.00 59 1008.1
20260502101316 92 135 0.0 0.0 0.00 0.00 0.00 59 1008.3
20260502100813 92 157 0.0 0.0 0.00 0.00 0.00 59 1008.2
20260502091302 92 153 0.0 0.0 0.00 0.00 0.00 59 1008.1
20260502090801 92 142 0.0 0.0 0.00 0.00 0.00 59 1008.1
20260502090300 92 139 0.0 0.0 0.00 0.00 0.00 59 1008.1
20260502071236 90 137 0.0 0.0 0.00 0.00 0.00 62 1008.9
20260502070735 90 156 0.0 0.0 0.00 0.00 0.00 63 1009.0
20260502070235 90 135 0.0 0.0 0.00 0.00 0.00 63 1009.1
20260502065733 90 143 0.0 0.0 0.00 0.00 0.00 63 1009.4
20260502064731 89 135 0.0 0.0 0.00 0.00 0.00 63 1009.6
20260502064230 89 135 0.0 0.0 0.00 0.00 0.00 63 1009.7
20260502063729 89 135 0.0 0.0 0.00 0.00 0.00 63 1009.7
20260502063228 89 135 0.0 0.0 0.00 0.00 0.00 63 1009.9
20260502062226 88 135 0.0 0.0 0.00 0.00 0.00 64 1010.0
20260502061224 88 135 0.0 0.0 0.00 0.00 0.00 64 1010.2
20260502060723 88 135 0.0 0.0 0.00 0.00 0.00 64 1010.5
20260502060223 88 136 0.0 0.0 0.00 0.00 0.00 65 1010.7
20260502055220 88 135 0.0 0.0 0.00 0.00 0.00 65 1010.9
20260502053719 88 135 0.0 0.0 0.00 0.00 0.00 66 1011.1
20260502053215 88 135 0.0 0.0 0.00 0.00 0.00 66 1011.0
20260502052715 88 135 0.0 0.0 0.00 0.00 0.00 65 1011.1
20260502051712 88 135 0.0 0.0 0.00 0.00 0.00 65 1011.2
20260502051213 88 135 0.0 0.0 0.00 0.00 0.00 65 1011.3
20260502050710 88 153 0.0 0.0 0.00 0.00 0.00 65 1011.5
20260502050210 88 135 0.0 0.0 0.00 0.00 0.00 64 1011.7
20260502045708 89 135 0.0 0.0 0.00 0.00 0.00 64 1011.7
20260502045207 89 151 0.0 0.0 0.00 0.00 0.00 64 1011.8
20260502043704 90 142 0.0 0.0 0.00 0.00 0.00 63 1011.9
20260502042702 90 135 0.0 0.0 0.00 0.00 0.00 64 1012.1
20260502042202 90 149 0.0 0.0 0.00 0.00 0.00 64 1012.2
20260502041700 90 135 0.0 0.0 0.00 0.00 0.00 64 1012.2
20260502041159 89 135 0.0 0.0 0.00 0.00 0.00 65 1012.3
20260502040658 89 135 0.0 0.0 0.00 0.00 0.00 65 1012.4
20260502040157 89 135 0.0 0.0 0.00 0.00 0.00 66 1012.5
20260502034654 88 135 0.0 0.0 0.00 0.00 0.00 67 1012.3
20260502034152 88 135 0.0 0.0 0.00 0.00 0.00 68 1012.3
20260502033152 88 135 0.0 0.0 0.00 0.00 0.00 68 1012.7
20260502032649 88 135 0.0 0.0 0.00 0.00 0.00 69 1012.7
20260502032148 87 135 0.0 0.0 0.00 0.00 0.00 69 1012.7
20260502031647 87 135 0.0 0.0 0.00 0.00 0.00 69 1012.8
20260502031146 87 135 0.0 0.0 0.00 0.00 0.00 70 1012.8
20260502030646 87 135 0.0 0.0 0.00 0.00 0.00 70 1012.9
20260502025643 86 135 0.0 0.0 0.00 0.00 0.00 70 1012.8
20260502025142 86 135 0.0 0.0 0.00 0.00 0.00 71 1012.8
20260502024641 86 135 0.0 0.0 0.00 0.00 0.00 71 1012.9
20260502023639 86 135 0.0 0.0 0.00 0.00 0.00 72 1012.9
20260502023138 85 135 0.0 0.0 0.00 0.00 0.00 72 1012.7
20260502022136 85 135 0.0 0.0 0.00 0.00 0.00 72 1012.7
20260502021636 85 135 0.0 0.0 0.00 0.00 0.00 73 1012.7
20260502021134 84 135 0.0 0.0 0.00 0.00 0.00 73 1012.7
20260502020131 84 135 0.0 0.0 0.00 0.00 0.00 73 1012.6
20260502014628 83 135 0.0 0.0 0.00 0.00 0.00 73 1012.6
20260502014127 83 135 0.0 0.0 0.00 0.00 0.00 73 1012.6
20260502013125 83 135 0.0 0.0 0.00 0.00 0.00 73 1012.5
20260502012624 83 135 0.0 0.0 0.00 0.00 0.00 73 1012.5
20260502012123 83 135 0.0 0.0 0.00 0.00 0.00 73 1012.5
20260502011622 83 135 0.0 0.0 0.00 0.00 0.00 73 1012.6
20260502005618 82 135 0.0 0.0 0.00 0.00 0.00 73 1012.5
20260502005117 82 135 0.0 0.0 0.00 0.00 0.00 73 1012.3
20260502004617 82 135 0.0 0.0 0.00 0.00 0.00 73 1012.2
20260502004115 82 135 0.0 0.0 0.00 0.00 0.00 73 1012.0
20260502002611 82 135 0.0 0.0 0.00 0.00 0.00 73 1011.9
20260502001110 82 135 0.0 0.0 0.00 0.00 0.00 73 1011.7
20260502000106 82 135 0.0 0.0 0.00 0.00 0.00 73 1011.7
20260501235605 82 135 0.0 0.0 0.00 0.00 0.00 73 1011.5
20260501235104 82 135 0.0 0.0 0.00 0.00 0.00 73 1011.4
20260501233601 82 135 0.0 0.0 0.00 0.00 0.00 72 1011.3
20260501233100 82 135 0.0 0.0 0.00 0.00 0.00 72 1011.1
20260501232559 82 135 0.0 0.0 0.00 0.00 0.00 72 1011.0
20260501232059 82 135 0.0 0.0 0.00 0.00 0.00 72 1011.0
20260501231056 82 135 0.0 0.0 0.00 0.00 0.00 72 1010.9
20260501230054 82 135 0.0 0.0 0.00 0.00 0.00 72 1010.8
20260501225051 82 135 0.0 0.0 0.00 0.00 0.00 72 1010.6
20260501224551 82 135 0.0 0.0 0.00 0.00 0.00 72 1010.5
20260501224049 82 135 0.0 0.0 0.00 0.00 0.00 72 1010.5
20260501223049 82 135 0.0 0.0 0.00 0.00 0.00 72 1010.4
20260501222546 82 135 0.0 0.0 0.00 0.00 0.00 72 1010.3